contact:dominique.lefevre@mio.osupytheas.fr, maurice.libes@osupytheas.fr, didier.mallarino@osupytheas.fr
Project:EMSO http://www.emso-fr.org/EMSO-France
Depth: 2436.0 m
Title:EMSO Ligure Ouest : Data MII capteur MICROCAT
DateTime_Computer,Latitude,Longitude,Temperature,Conductivity,Pressure,DateTime_Instrument
DateTime_Computer,Latitude,Longitude,degC,S m-1,dbar,DateTime_Instrument
2020-01-01T00:02:46Z,42.805,6.029,13.2982,4.59991,2470.017,2020-1-01T02:03:17Z
2020-01-01T00:05:49Z,42.805,6.029,13.2971,4.59994,2470.03,2020-1-01T02:06:21Z
2020-01-01T00:08:52Z,42.805,6.029,13.2972,4.59991,2470.053,2020-1-01T02:09:24Z
2020-01-01T00:11:56Z,42.805,6.029,13.2976,4.59999,2470.1,2020-1-01T02:12:27Z
2020-01-01T00:14:59Z,42.805,6.029,13.2972,4.59993,2470.03,2020-1-01T02:15:30Z
2020-01-01T00:18:02Z,42.805,6.029,13.2981,4.60000,2470.077,2020-1-01T02:18:33Z
2020-01-01T00:21:05Z,42.805,6.029,13.2974,4.59991,2470.04,2020-1-01T02:21:37Z
2020-01-01T00:24:09Z,42.805,6.029,13.2977,4.59987,2470.04,2020-1-01T02:24:40Z
2020-01-01T00:27:12Z,42.805,6.029,13.2973,4.59994,2470.03,2020-1-01T02:27:43Z
2020-01-01T00:30:15Z,42.805,6.029,13.2978,4.60003,2470.03,2020-1-01T02:30:47Z
2020-01-01T00:33:18Z,42.805,6.029,13.2976,4.59992,2470.053,2020-1-01T02:33:50Z
2020-01-01T00:36:22Z,42.805,6.029,13.2977,4.59993,2470.053,2020-1-01T02:36:53Z
2020-01-01T00:39:25Z,42.805,6.029,13.2974,4.59990,2470.017,2020-1-01T02:39:56Z
2020-01-01T00:42:28Z,42.805,6.029,13.2979,4.59986,2470.03,2020-1-01T02:43:00Z
2020-01-01T00:45:31Z,42.805,6.029,13.2974,4.60003,2470.063,2020-1-01T02:46:03Z
2020-01-01T00:48:35Z,42.805,6.029,13.2973,4.59984,2470.077,2020-1-01T02:49:06Z
2020-01-01T00:51:38Z,42.805,6.029,13.2971,4.59983,2470.04,2020-1-01T02:52:09Z
2020-01-01T00:54:41Z,42.805,6.029,13.2981,4.59994,2470.017,2020-1-01T02:55:12Z
2020-01-01T00:57:44Z,42.805,6.029,13.2976,4.59983,2470.053,2020-1-01T02:58:16Z
2020-01-01T01:00:48Z,42.805,6.029,13.2972,4.59979,2470.017,2020-1-01T03:01:19Z
2020-01-01T01:03:51Z,42.805,6.029,13.2975,4.59985,2470.077,2020-1-01T03:04:22Z
2020-01-01T01:06:54Z,42.805,6.029,13.2983,4.59997,2470.017,2020-1-01T03:07:26Z
2020-01-01T01:09:57Z,42.805,6.029,13.2975,4.59989,2469.993,2020-1-01T03:10:29Z
2020-01-01T01:13:01Z,42.805,6.029,13.2975,4.59981,2469.984,2020-1-01T03:13:32Z
2020-01-01T01:16:04Z,42.805,6.029,13.2972,4.59976,2470.053,2020-1-01T03:16:35Z
2020-01-01T01:19:07Z,42.805,6.029,13.2979,4.59981,2470.007,2020-1-01T03:19:38Z
2020-01-01T01:22:10Z,42.805,6.029,13.2973,4.59979,2469.993,2020-1-01T03:22:42Z
2020-01-01T01:25:14Z,42.805,6.029,13.2974,4.59981,2470.017,2020-1-01T03:25:45Z
2020-01-01T01:28:17Z,42.805,6.029,13.2980,4.59979,2470.007,2020-1-01T03:28:48Z
2020-01-01T01:31:20Z,42.805,6.029,13.2975,4.59981,2470.017,2020-1-01T03:31:51Z
2020-01-01T01:34:23Z,42.805,6.029,13.2975,4.59983,2470.04,2020-1-01T03:34:55Z
2020-01-01T01:37:26Z,42.805,6.029,13.2980,4.59982,2470.053,2020-1-01T03:37:58Z
2020-01-01T01:40:30Z,42.805,6.029,13.2978,4.59983,2469.993,2020-1-01T03:41:01Z
2020-01-01T01:43:33Z,42.805,6.029,13.2978,4.59981,2470.017,2020-1-01T03:44:04Z
2020-01-01T01:46:36Z,42.805,6.029,13.2975,4.59981,2470.007,2020-1-01T03:47:07Z
2020-01-01T01:49:39Z,42.805,6.029,13.2979,4.59982,2469.993,2020-1-01T03:50:11Z
2020-01-01T01:52:43Z,42.805,6.029,13.2978,4.59978,2470.03,2020-1-01T03:53:14Z
2020-01-01T01:55:46Z,42.805,6.029,13.2977,4.59983,2470.03,2020-1-01T03:56:17Z
2020-01-01T01:58:49Z,42.805,6.029,13.2976,4.59977,2470.053,2020-1-01T03:59:20Z
2020-01-01T02:01:52Z,42.805,6.029,13.2975,4.59983,2470.017,2020-1-01T04:02:23Z
2020-01-01T02:04:55Z,42.805,6.029,13.2971,4.59980,2470.007,2020-1-01T04:05:27Z
2020-01-01T02:07:59Z,42.805,6.029,13.2977,4.59985,2470.017,2020-1-01T04:08:30Z
2020-01-01T02:11:02Z,42.805,6.029,13.2976,4.59989,2470.017,2020-1-01T04:11:33Z
2020-01-01T02:14:05Z,42.805,6.029,13.2972,4.59986,2469.993,2020-1-01T04:14:36Z
2020-01-01T02:17:08Z,42.805,6.029,13.2977,4.59986,2469.993,2020-1-01T04:17:40Z
2020-01-01T02:20:11Z,42.805,6.029,13.2974,4.59983,2469.97,2020-1-01T04:20:43Z
2020-01-01T02:23:15Z,42.805,6.029,13.2980,4.59981,2469.97,2020-1-01T04:23:46Z
2020-01-01T02:26:18Z,42.805,6.029,13.2971,4.59979,2470.017,2020-1-01T04:26:49Z
2020-01-01T02:29:21Z,42.805,6.029,13.2974,4.59981,2469.993,2020-1-01T04:29:52Z
2020-01-01T02:32:24Z,42.805,6.029,13.2979,4.59980,2470.03,2020-1-01T04:32:56Z
2020-01-01T02:35:27Z,42.805,6.029,13.2974,4.59975,2470.007,2020-1-01T04:35:59Z
2020-01-01T02:38:31Z,42.805,6.029,13.2975,4.59979,2469.993,2020-1-01T04:39:02Z
2020-01-01T02:41:34Z,42.805,6.029,13.2979,4.59983,2469.984,2020-1-01T04:42:05Z
2020-01-01T02:44:37Z,42.805,6.029,13.2979,4.59981,2469.993,2020-1-01T04:45:08Z
2020-01-01T02:47:40Z,42.805,6.029,13.2979,4.59988,2469.993,2020-1-01T04:48:12Z
2020-01-01T02:50:43Z,42.805,6.029,13.2978,4.59982,2470.017,2020-1-01T04:51:15Z
2020-01-01T02:53:47Z,42.805,6.029,13.2979,4.59980,2469.97,2020-1-01T04:54:18Z
2020-01-01T02:56:50Z,42.805,6.029,13.2976,4.59987,2469.993,2020-1-01T04:57:21Z
2020-01-01T02:59:53Z,42.805,6.029,13.2976,4.59982,2469.993,2020-1-01T05:00:24Z
2020-01-01T03:02:56Z,42.805,6.029,13.2976,4.59979,2469.97,2020-1-01T05:03:28Z
2020-01-01T03:06:00Z,42.805,6.029,13.2977,4.59981,2469.97,2020-1-01T05:06:31Z
2020-01-01T03:09:03Z,42.805,6.029,13.2975,4.59983,2469.947,2020-1-01T05:09:34Z
2020-01-01T03:12:06Z,42.805,6.029,13.2977,4.59985,2469.96,2020-1-01T05:12:37Z
2020-01-01T03:15:09Z,42.805,6.029,13.2974,4.59981,2470.007,2020-1-01T05:15:40Z
2020-01-01T03:18:12Z,42.805,6.029,13.2975,4.59983,2469.993,2020-1-01T05:18:44Z
2020-01-01T03:21:16Z,42.805,6.029,13.2971,4.59978,2470.007,2020-1-01T05:21:47Z
2020-01-01T03:24:19Z,42.805,6.029,13.2975,4.59987,2469.984,2020-1-01T05:24:50Z
2020-01-01T03:27:22Z,42.805,6.029,13.2978,4.59985,2469.947,2020-1-01T05:27:54Z
2020-01-01T03:30:25Z,42.805,6.029,13.2981,4.59986,2469.993,2020-1-01T05:30:57Z
2020-01-01T03:33:29Z,42.805,6.029,13.2976,4.59989,2469.984,2020-1-01T05:34:00Z
2020-01-01T03:36:32Z,42.805,6.029,13.2991,4.59991,2469.993,2020-1-01T05:37:03Z
2020-01-01T03:39:35Z,42.805,6.029,13.2976,4.59983,2469.984,2020-1-01T05:40:06Z
2020-01-01T03:42:38Z,42.805,6.029,13.2976,4.59985,2469.993,2020-1-01T05:43:10Z
2020-01-01T03:45:42Z,42.805,6.029,13.2974,4.59983,2469.984,2020-1-01T05:46:13Z
2020-01-01T03:48:45Z,42.805,6.029,13.2979,4.59994,2469.984,2020-1-01T05:49:16Z
2020-01-01T03:51:48Z,42.805,6.029,13.2975,4.59978,2469.993,2020-1-01T05:52:19Z
2020-01-01T03:54:51Z,42.805,6.029,13.2969,4.59981,2469.993,2020-1-01T05:55:23Z
2020-01-01T03:57:55Z,42.805,6.029,13.2971,4.59982,2469.947,2020-1-01T05:58:26Z
2020-01-01T04:00:58Z,42.805,6.029,13.2972,4.59982,2469.993,2020-1-01T06:01:29Z
2020-01-01T04:04:01Z,42.805,6.029,13.2979,4.59984,2469.993,2020-1-01T06:04:32Z
2020-01-01T04:07:04Z,42.805,6.029,13.2974,4.59982,2470.017,2020-1-01T06:07:35Z
2020-01-01T04:10:07Z,42.805,6.029,13.2980,4.60002,2469.984,2020-1-01T06:10:39Z
2020-01-01T04:13:10Z,42.805,6.029,13.2972,4.59986,2469.97,2020-1-01T06:13:42Z
2020-01-01T04:16:14Z,42.805,6.029,13.2983,4.60004,2469.97,2020-1-01T06:16:45Z
2020-01-01T04:19:17Z,42.805,6.029,13.2986,4.59989,2469.97,2020-1-01T06:19:48Z
2020-01-01T04:22:20Z,42.805,6.029,13.2979,4.59996,2469.947,2020-1-01T06:22:51Z
2020-01-01T04:25:23Z,42.805,6.029,13.2984,4.60001,2469.97,2020-1-01T06:25:55Z
2020-01-01T04:28:26Z,42.805,6.029,13.2979,4.60004,2469.97,2020-1-01T06:28:58Z
2020-01-01T04:31:30Z,42.805,6.029,13.2974,4.59996,2469.97,2020-1-01T06:32:01Z
2020-01-01T04:34:33Z,42.805,6.029,13.2979,4.59990,2469.97,2020-1-01T06:35:04Z
2020-01-01T04:37:36Z,42.805,6.029,13.2974,4.59987,2469.97,2020-1-01T06:38:08Z
2020-01-01T04:40:40Z,42.805,6.029,13.2980,4.60001,2469.97,2020-1-01T06:41:11Z
2020-01-01T04:43:43Z,42.805,6.029,13.2982,4.59987,2469.97,2020-1-01T06:44:14Z
2020-01-01T04:46:46Z,42.805,6.029,13.2976,4.59991,2469.97,2020-1-01T06:47:17Z
2020-01-01T04:49:49Z,42.805,6.029,13.2976,4.59995,2469.96,2020-1-01T06:50:21Z
2020-01-01T04:52:52Z,42.805,6.029,13.2982,4.60003,2469.993,2020-1-01T06:53:24Z
2020-01-01T04:55:56Z,42.805,6.029,13.2978,4.59996,2469.984,2020-1-01T06:56:27Z
2020-01-01T04:58:59Z,42.805,6.029,13.2978,4.59990,2469.96,2020-1-01T06:59:31Z
2020-01-01T05:02:02Z,42.805,6.029,13.2974,4.59979,2469.984,2020-1-01T07:02:34Z
2020-01-01T05:05:06Z,42.805,6.029,13.2985,4.60003,2469.97,2020-1-01T07:05:37Z
2020-01-01T05:08:09Z,42.805,6.029,13.2983,4.60002,2469.923,2020-1-01T07:08:40Z
2020-01-01T05:11:12Z,42.805,6.029,13.2980,4.59989,2469.96,2020-1-01T07:11:43Z
2020-01-01T05:14:15Z,42.805,6.029,13.2976,4.59987,2469.984,2020-1-01T07:14:47Z
2020-01-01T05:17:18Z,42.805,6.029,13.2985,4.60003,2469.984,2020-1-01T07:17:50Z
2020-01-01T05:20:22Z,42.805,6.029,13.2977,4.59999,2469.984,2020-1-01T07:20:53Z
2020-01-01T05:23:25Z,42.805,6.029,13.2981,4.59988,2469.993,2020-1-01T07:23:56Z
2020-01-01T05:26:28Z,42.805,6.029,13.2986,4.60015,2469.947,2020-1-01T07:27:00Z
2020-01-01T05:29:31Z,42.805,6.029,13.2989,4.59996,2469.97,2020-1-01T07:30:03Z
2020-01-01T05:32:35Z,42.805,6.029,13.2982,4.59986,2469.993,2020-1-01T07:33:06Z
2020-01-01T05:35:38Z,42.805,6.029,13.2981,4.59989,2469.96,2020-1-01T07:36:09Z
2020-01-01T05:38:41Z,42.805,6.029,13.2978,4.60000,2469.984,2020-1-01T07:39:13Z
2020-01-01T05:41:44Z,42.805,6.029,13.2975,4.59986,2469.97,2020-1-01T07:42:16Z
2020-01-01T05:44:48Z,42.805,6.029,13.2980,4.59985,2469.947,2020-1-01T07:45:19Z
2020-01-01T05:47:51Z,42.805,6.029,13.2979,4.59983,2470.007,2020-1-01T07:48:22Z
2020-01-01T05:50:54Z,42.805,6.029,13.2982,4.59986,2469.97,2020-1-01T07:51:25Z
2020-01-01T05:53:57Z,42.805,6.029,13.2983,4.59990,2470.007,2020-1-01T07:54:29Z
2020-01-01T05:57:00Z,42.805,6.029,13.2977,4.59998,2470.007,2020-1-01T07:57:32Z
2020-01-01T06:00:04Z,42.805,6.029,13.2980,4.59988,2469.984,2020-1-01T08:00:35Z
2020-01-01T06:03:07Z,42.805,6.029,13.2985,4.59986,2469.984,2020-1-01T08:03:38Z
2020-01-01T06:06:10Z,42.805,6.029,13.2982,4.59999,2469.96,2020-1-01T08:06:41Z
2020-01-01T06:09:13Z,42.805,6.029,13.2984,4.59986,2469.97,2020-1-01T08:09:45Z
2020-01-01T06:12:17Z,42.805,6.029,13.2979,4.59985,2469.97,2020-1-01T08:12:48Z
2020-01-01T06:15:20Z,42.805,6.029,13.2978,4.60007,2469.96,2020-1-01T08:15:51Z
2020-01-01T06:18:23Z,42.805,6.029,13.2977,4.59986,2469.97,2020-1-01T08:18:54Z
2020-01-01T06:21:26Z,42.805,6.029,13.2979,4.59987,2470.007,2020-1-01T08:21:58Z
2020-01-01T06:24:30Z,42.805,6.029,13.2981,4.59988,2469.984,2020-1-01T08:25:01Z
2020-01-01T06:27:33Z,42.805,6.029,13.2979,4.59996,2469.947,2020-1-01T08:28:04Z
2020-01-01T06:30:36Z,42.805,6.029,13.2983,4.60007,2470.007,2020-1-01T08:31:07Z
2020-01-01T06:33:39Z,42.805,6.029,13.2989,4.60003,2469.993,2020-1-01T08:34:11Z
2020-01-01T06:36:42Z,42.805,6.029,13.2974,4.59988,2469.97,2020-1-01T08:37:14Z
2020-01-01T06:39:46Z,42.805,6.029,13.2981,4.59983,2469.993,2020-1-01T08:40:17Z
2020-01-01T06:42:49Z,42.805,6.029,13.2980,4.59984,2469.993,2020-1-01T08:43:20Z
2020-01-01T06:45:52Z,42.805,6.029,13.2981,4.59985,2469.979,2020-1-01T08:46:24Z
2020-01-01T06:48:56Z,42.805,6.029,13.2983,4.59989,2469.984,2020-1-01T08:49:27Z
2020-01-01T06:51:59Z,42.805,6.029,13.2978,4.59991,2469.97,2020-1-01T08:52:30Z
2020-01-01T06:55:02Z,42.805,6.029,13.2983,4.59994,2469.984,2020-1-01T08:55:33Z
2020-01-01T06:58:05Z,42.805,6.029,13.2976,4.59999,2469.97,2020-1-01T08:58:37Z
2020-01-01T07:01:09Z,42.805,6.029,13.2986,4.59995,2470.007,2020-1-01T09:01:41Z
2020-01-01T07:04:12Z,42.805,6.029,13.2976,4.59985,2469.97,2020-1-01T09:04:44Z
2020-01-01T07:07:16Z,42.805,6.029,13.2982,4.60007,2470.03,2020-1-01T09:07:47Z
2020-01-01T07:10:19Z,42.805,6.029,13.2983,4.59991,2470.007,2020-1-01T09:10:50Z
2020-01-01T07:13:22Z,42.805,6.029,13.2979,4.59986,2470.03,2020-1-01T09:13:53Z
2020-01-01T07:16:25Z,42.805,6.029,13.2989,4.60000,2470.017,2020-1-01T09:16:57Z
2020-01-01T07:19:28Z,42.805,6.029,13.2982,4.59996,2470.03,2020-1-01T09:20:00Z
2020-01-01T07:22:32Z,42.805,6.029,13.2981,4.59997,2470.03,2020-1-01T09:23:03Z
2020-01-01T07:25:35Z,42.805,6.029,13.2979,4.59987,2470.04,2020-1-01T09:26:06Z
2020-01-01T07:28:38Z,42.805,6.029,13.2983,4.59999,2470.03,2020-1-01T09:29:10Z
2020-01-01T07:31:41Z,42.805,6.029,13.2991,4.59993,2470.03,2020-1-01T09:32:13Z
2020-01-01T07:34:45Z,42.805,6.029,13.2982,4.59989,2470.053,2020-1-01T09:35:16Z
2020-01-01T07:37:48Z,42.805,6.029,13.2986,4.60009,2470.053,2020-1-01T09:38:19Z
2020-01-01T07:40:51Z,42.805,6.029,13.2983,4.60019,2470.04,2020-1-01T09:41:22Z
2020-01-01T07:43:54Z,42.805,6.029,13.2982,4.59994,2470.04,2020-1-01T09:44:26Z
2020-01-01T07:46:57Z,42.805,6.029,13.2983,4.59996,2470.017,2020-1-01T09:47:29Z
2020-01-01T07:50:01Z,42.805,6.029,13.2987,4.60006,2470.077,2020-1-01T09:50:32Z
2020-01-01T07:53:04Z,42.805,6.029,13.2980,4.60009,2470.077,2020-1-01T09:53:35Z
2020-01-01T07:56:07Z,42.805,6.029,13.2986,4.60009,2470.03,2020-1-01T09:56:39Z
2020-01-01T07:59:10Z,42.805,6.029,13.2982,4.59994,2470.017,2020-1-01T09:59:42Z
2020-01-01T08:02:14Z,42.805,6.029,13.2979,4.60014,2470.077,2020-1-01T10:02:45Z
2020-01-01T08:05:17Z,42.805,6.029,13.2987,4.60020,2470.1,2020-1-01T10:05:48Z
2020-01-01T08:08:20Z,42.805,6.029,13.2996,4.60008,2470.063,2020-1-01T10:08:51Z
2020-01-01T08:11:23Z,42.805,6.029,13.2980,4.60013,2470.077,2020-1-01T10:11:55Z
2020-01-01T08:14:26Z,42.805,6.029,13.2983,4.60003,2470.053,2020-1-01T10:14:58Z
2020-01-01T08:17:30Z,42.805,6.029,13.2984,4.60006,2470.077,2020-1-01T10:18:01Z
2020-01-01T08:20:33Z,42.805,6.029,13.2977,4.59988,2470.077,2020-1-01T10:21:04Z
2020-01-01T08:23:36Z,42.805,6.029,13.2983,4.59990,2470.073,2020-1-01T10:24:08Z
2020-01-01T08:26:40Z,42.805,6.029,13.2993,4.59996,2470.077,2020-1-01T10:27:11Z
2020-01-01T08:29:43Z,42.805,6.029,13.2981,4.59991,2470.1,2020-1-01T10:30:14Z
2020-01-01T08:32:46Z,42.805,6.029,13.2982,4.60005,2470.077,2020-1-01T10:33:17Z
2020-01-01T08:35:49Z,42.805,6.029,13.2982,4.60015,2470.077,2020-1-01T10:36:21Z
2020-01-01T08:38:53Z,42.805,6.029,13.2986,4.60003,2470.077,2020-1-01T10:39:24Z
2020-01-01T08:41:56Z,42.805,6.029,13.2988,4.60007,2470.1,2020-1-01T10:42:27Z
2020-01-01T08:44:59Z,42.805,6.029,13.2990,4.60016,2470.1,2020-1-01T10:45:30Z
2020-01-01T08:48:02Z,42.805,6.029,13.2984,4.60019,2470.063,2020-1-01T10:48:34Z
2020-01-01T08:51:06Z,42.805,6.029,13.2991,4.60001,2470.087,2020-1-01T10:51:37Z
2020-01-01T08:54:09Z,42.805,6.029,13.2985,4.60026,2470.124,2020-1-01T10:54:40Z
2020-01-01T08:57:12Z,42.805,6.029,13.2988,4.60013,2470.11,2020-1-01T10:57:43Z
2020-01-01T09:00:15Z,42.805,6.029,13.2983,4.60024,2470.1,2020-1-01T11:00:47Z
2020-01-01T09:03:19Z,42.805,6.029,13.2989,4.60027,2470.124,2020-1-01T11:03:50Z
2020-01-01T09:06:22Z,42.805,6.029,13.2991,4.60015,2470.124,2020-1-01T11:06:53Z
2020-01-01T09:09:25Z,42.805,6.029,13.2986,4.60011,2470.133,2020-1-01T11:09:57Z
2020-01-01T09:12:28Z,42.805,6.029,13.2995,4.60019,2470.11,2020-1-01T11:13:00Z
2020-01-01T09:15:32Z,42.805,6.029,13.2985,4.60005,2470.147,2020-1-01T11:16:03Z
2020-01-01T09:18:35Z,42.805,6.029,13.2983,4.60002,2470.087,2020-1-01T11:19:06Z
2020-01-01T09:21:38Z,42.805,6.029,13.2989,4.60003,2470.147,2020-1-01T11:22:09Z
2020-01-01T09:24:41Z,42.805,6.029,13.2999,4.60014,2470.124,2020-1-01T11:25:13Z
2020-01-01T09:27:45Z,42.805,6.029,13.2991,4.60009,2470.124,2020-1-01T11:28:16Z
2020-01-01T09:30:48Z,42.805,6.029,13.2985,4.60009,2470.124,2020-1-01T11:31:19Z
2020-01-01T09:33:51Z,42.805,6.029,13.2994,4.60019,2470.147,2020-1-01T11:34:22Z
2020-01-01T09:36:54Z,42.805,6.029,13.2993,4.60021,2470.133,2020-1-01T11:37:26Z
2020-01-01T09:39:58Z,42.805,6.029,13.2983,4.60007,2470.133,2020-1-01T11:40:29Z
2020-01-01T09:43:01Z,42.805,6.029,13.2993,4.60024,2470.11,2020-1-01T11:43:32Z
2020-01-01T09:46:04Z,42.805,6.029,13.2988,4.60014,2470.133,2020-1-01T11:46:35Z
2020-01-01T09:49:07Z,42.805,6.029,13.2991,4.60024,2470.171,2020-1-01T11:49:39Z
2020-01-01T09:52:10Z,42.805,6.029,13.3003,4.60042,2470.11,2020-1-01T11:52:42Z
2020-01-01T09:55:14Z,42.805,6.029,13.2990,4.60023,2470.133,2020-1-01T11:55:45Z
2020-01-01T09:58:17Z,42.805,6.029,13.2986,4.60011,2470.171,2020-1-01T11:58:48Z
2020-01-01T10:01:20Z,42.805,6.029,13.2990,4.59999,2470.087,2020-1-01T12:01:52Z
2020-01-01T10:04:23Z,42.805,6.029,13.2991,4.59993,2470.124,2020-1-01T12:04:55Z
2020-01-01T10:07:27Z,42.805,6.029,13.2986,4.60018,2470.156,2020-1-01T12:07:58Z
2020-01-01T10:10:30Z,42.805,6.029,13.2988,4.60004,2470.11,2020-1-01T12:11:01Z
2020-01-01T10:13:33Z,42.805,6.029,13.2983,4.60005,2470.11,2020-1-01T12:14:05Z
2020-01-01T10:16:36Z,42.805,6.029,13.2990,4.60014,2470.171,2020-1-01T12:17:08Z
2020-01-01T10:19:40Z,42.805,6.029,13.2995,4.60026,2470.156,2020-1-01T12:20:11Z
2020-01-01T10:22:43Z,42.805,6.029,13.2986,4.60040,2470.194,2020-1-01T12:23:14Z
2020-01-01T10:25:46Z,42.805,6.029,13.2994,4.60029,2470.156,2020-1-01T12:26:17Z
2020-01-01T10:28:49Z,42.805,6.029,13.2982,4.60020,2470.156,2020-1-01T12:29:21Z
2020-01-01T10:31:53Z,42.805,6.029,13.2982,4.60016,2470.147,2020-1-01T12:32:24Z
2020-01-01T10:34:56Z,42.805,6.029,13.2990,4.60036,2470.156,2020-1-01T12:35:27Z
2020-01-01T10:37:59Z,42.805,6.029,13.3000,4.60023,2470.171,2020-1-01T12:38:30Z
2020-01-01T10:41:02Z,42.805,6.029,13.3006,4.60016,2470.203,2020-1-01T12:41:34Z
2020-01-01T10:44:05Z,42.805,6.029,13.2990,4.60047,2470.171,2020-1-01T12:44:37Z
2020-01-01T10:47:09Z,42.805,6.029,13.2998,4.60060,2470.133,2020-1-01T12:47:40Z
2020-01-01T10:50:12Z,42.805,6.029,13.3008,4.60062,2470.156,2020-1-01T12:50:43Z
2020-01-01T10:53:15Z,42.805,6.029,13.2988,4.60024,2470.171,2020-1-01T12:53:46Z
2020-01-01T10:56:18Z,42.805,6.029,13.3012,4.60044,2470.124,2020-1-01T12:56:50Z
2020-01-01T10:59:22Z,42.805,6.029,13.2988,4.60015,2470.156,2020-1-01T12:59:53Z
2020-01-01T11:02:25Z,42.805,6.029,13.3018,4.60051,2470.171,2020-1-01T13:02:56Z
2020-01-01T11:05:28Z,42.805,6.029,13.2994,4.60050,2470.171,2020-1-01T13:05:59Z
2020-01-01T11:08:31Z,42.805,6.029,13.3006,4.60019,2470.171,2020-1-01T13:09:03Z
2020-01-01T11:11:34Z,42.805,6.029,13.2997,4.60021,2470.171,2020-1-01T13:12:06Z
2020-01-01T11:14:38Z,42.805,6.029,13.3007,4.60049,2470.156,2020-1-01T13:15:09Z
2020-01-01T11:17:41Z,42.805,6.029,13.3004,4.60050,2470.18,2020-1-01T13:18:12Z
2020-01-01T11:20:44Z,42.805,6.029,13.3001,4.60043,2470.147,2020-1-01T13:21:15Z
2020-01-01T11:23:47Z,42.805,6.029,13.3016,4.60042,2470.18,2020-1-01T13:24:19Z
2020-01-01T11:26:51Z,42.805,6.029,13.2990,4.60033,2470.156,2020-1-01T13:27:22Z
2020-01-01T11:29:54Z,42.805,6.029,13.2996,4.60033,2470.171,2020-1-01T13:30:25Z
2020-01-01T11:32:57Z,42.805,6.029,13.2993,4.60016,2470.133,2020-1-01T13:33:28Z
2020-01-01T11:36:00Z,42.805,6.029,13.2992,4.60018,2470.194,2020-1-01T13:36:32Z
2020-01-01T11:39:03Z,42.805,6.029,13.2996,4.60057,2470.147,2020-1-01T13:39:35Z
2020-01-01T11:42:07Z,42.805,6.029,13.3008,4.60033,2470.156,2020-1-01T13:42:38Z
2020-01-01T11:45:10Z,42.805,6.029,13.3000,4.60052,2470.147,2020-1-01T13:45:41Z
2020-01-01T11:48:13Z,42.805,6.029,13.2996,4.60057,2470.171,2020-1-01T13:48:44Z
2020-01-01T11:51:16Z,42.805,6.029,13.3006,4.60053,2470.133,2020-1-01T13:51:48Z
2020-01-01T11:54:20Z,42.805,6.029,13.3006,4.60069,2470.18,2020-1-01T13:54:51Z
2020-01-01T11:57:23Z,42.805,6.029,13.3004,4.60036,2470.133,2020-1-01T13:57:54Z
2020-01-01T12:00:26Z,42.805,6.029,13.3016,4.60054,2470.156,2020-1-01T14:00:58Z
2020-01-01T12:03:29Z,42.805,6.029,13.3020,4.60045,2470.171,2020-1-01T14:04:01Z
2020-01-01T12:06:33Z,42.805,6.029,13.3002,4.60053,2470.171,2020-1-01T14:07:04Z
2020-01-01T12:09:36Z,42.805,6.029,13.2996,4.60049,2470.133,2020-1-01T14:10:07Z
2020-01-01T12:12:39Z,42.805,6.029,13.3029,4.60063,2470.194,2020-1-01T14:13:10Z
2020-01-01T12:15:42Z,42.805,6.029,13.3003,4.60039,2470.156,2020-1-01T14:16:14Z
2020-01-01T12:18:45Z,42.805,6.029,13.3010,4.60044,2470.133,2020-1-01T14:19:17Z
2020-01-01T12:21:49Z,42.805,6.029,13.3012,4.60029,2470.11,2020-1-01T14:22:20Z
2020-01-01T12:24:52Z,42.805,6.029,13.3006,4.60023,2470.147,2020-1-01T14:25:23Z
2020-01-01T12:27:55Z,42.805,6.029,13.3002,4.60047,2470.156,2020-1-01T14:28:26Z
2020-01-01T12:30:58Z,42.805,6.029,13.2996,4.60049,2470.147,2020-1-01T14:31:30Z
2020-01-01T12:34:01Z,42.805,6.029,13.2993,4.60014,2470.156,2020-1-01T14:34:33Z
2020-01-01T12:37:05Z,42.805,6.029,13.2998,4.60040,2470.133,2020-1-01T14:37:36Z
2020-01-01T12:40:08Z,42.805,6.029,13.3009,4.60034,2470.156,2020-1-01T14:40:39Z
2020-01-01T12:43:11Z,42.805,6.029,13.3028,4.60045,2470.147,2020-1-01T14:43:43Z
2020-01-01T12:46:14Z,42.805,6.029,13.3014,4.60039,2470.1,2020-1-01T14:46:46Z
2020-01-01T12:49:18Z,42.805,6.029,13.3021,4.60043,2470.124,2020-1-01T14:49:49Z
2020-01-01T12:52:21Z,42.805,6.029,13.3000,4.60031,2470.11,2020-1-01T14:52:52Z
2020-01-01T12:55:24Z,42.805,6.029,13.2996,4.60072,2470.147,2020-1-01T14:55:55Z
2020-01-01T12:58:27Z,42.805,6.029,13.2994,4.60038,2470.147,2020-1-01T14:58:59Z
2020-01-01T13:01:30Z,42.805,6.029,13.2999,4.60059,2470.1,2020-1-01T15:02:02Z
2020-01-01T13:04:34Z,42.805,6.029,13.3003,4.60075,2470.087,2020-1-01T15:05:05Z
2020-01-01T13:07:37Z,42.805,6.029,13.2998,4.60028,2470.133,2020-1-01T15:08:08Z
2020-01-01T13:10:40Z,42.805,6.029,13.2997,4.60023,2470.147,2020-1-01T15:11:11Z
2020-01-01T13:13:43Z,42.805,6.029,13.2998,4.60041,2470.147,2020-1-01T15:14:15Z
2020-01-01T13:16:47Z,42.805,6.029,13.2993,4.60024,2470.124,2020-1-01T15:17:18Z
2020-01-01T13:19:50Z,42.805,6.029,13.2989,4.60026,2470.087,2020-1-01T15:20:21Z
2020-01-01T13:22:53Z,42.805,6.029,13.2993,4.60049,2470.124,2020-1-01T15:23:24Z
2020-01-01T13:25:56Z,42.805,6.029,13.2999,4.60006,2470.087,2020-1-01T15:26:28Z
2020-01-01T13:29:00Z,42.805,6.029,13.2993,4.60054,2470.124,2020-1-01T15:29:31Z
2020-01-01T13:32:03Z,42.805,6.029,13.2991,4.60046,2470.063,2020-1-01T15:32:34Z
2020-01-01T13:35:06Z,42.805,6.029,13.2991,4.60036,2470.124,2020-1-01T15:35:37Z
2020-01-01T13:38:09Z,42.805,6.029,13.2993,4.60078,2470.124,2020-1-01T15:38:41Z
2020-01-01T13:41:13Z,42.805,6.029,13.3016,4.60050,2470.124,2020-1-01T15:41:44Z
2020-01-01T13:44:16Z,42.805,6.029,13.2992,4.60069,2470.124,2020-1-01T15:44:47Z
2020-01-01T13:47:19Z,42.805,6.029,13.2983,4.60046,2470.087,2020-1-01T15:47:50Z
2020-01-01T13:50:22Z,42.805,6.029,13.2996,4.60066,2470.124,2020-1-01T15:50:54Z
2020-01-01T13:53:25Z,42.805,6.029,13.3004,4.60052,2470.087,2020-1-01T15:53:57Z
2020-01-01T13:56:29Z,42.805,6.029,13.3001,4.60099,2470.11,2020-1-01T15:57:00Z
2020-01-01T13:59:32Z,42.805,6.029,13.3030,4.60040,2470.087,2020-1-01T16:00:03Z
2020-01-01T14:02:35Z,42.805,6.029,13.3024,4.60018,2470.11,2020-1-01T16:03:07Z
2020-01-01T14:05:38Z,42.805,6.029,13.3005,4.60042,2470.11,2020-1-01T16:06:10Z
2020-01-01T14:08:42Z,42.805,6.029,13.3000,4.60042,2470.063,2020-1-01T16:09:13Z
2020-01-01T14:11:45Z,42.805,6.029,13.3034,4.60052,2470.087,2020-1-01T16:12:16Z
2020-01-01T14:14:48Z,42.805,6.029,13.2990,4.60067,2470.1,2020-1-01T16:15:19Z
2020-01-01T14:17:51Z,42.805,6.029,13.2991,4.60033,2470.1,2020-1-01T16:18:23Z
2020-01-01T14:20:54Z,42.805,6.029,13.2998,4.60087,2470.077,2020-1-01T16:21:26Z
2020-01-01T14:23:58Z,42.805,6.029,13.2995,4.60069,2470.1,2020-1-01T16:24:29Z
2020-01-01T14:27:01Z,42.805,6.029,13.3000,4.60034,2470.1,2020-1-01T16:27:32Z
2020-01-01T14:30:04Z,42.805,6.029,13.2999,4.60028,2470.087,2020-1-01T16:30:36Z
2020-01-01T14:33:07Z,42.805,6.029,13.2992,4.60066,2470.063,2020-1-01T16:33:39Z
2020-01-01T14:36:11Z,42.805,6.029,13.3020,4.60047,2470.124,2020-1-01T16:36:42Z
2020-01-01T14:39:14Z,42.805,6.029,13.2994,4.60066,2470.1,2020-1-01T16:39:45Z
2020-01-01T14:42:17Z,42.805,6.029,13.3008,4.60066,2470.063,2020-1-01T16:42:48Z
2020-01-01T14:45:20Z,42.805,6.029,13.3006,4.60062,2470.077,2020-1-01T16:45:52Z
2020-01-01T14:48:24Z,42.805,6.029,13.2999,4.60058,2470.1,2020-1-01T16:48:55Z
2020-01-01T14:51:27Z,42.805,6.029,13.2989,4.60045,2470.077,2020-1-01T16:51:58Z
2020-01-01T14:54:30Z,42.805,6.029,13.2982,4.60021,2470.077,2020-1-01T16:55:01Z
2020-01-01T14:57:34Z,42.805,6.029,13.2981,4.60029,2470.063,2020-1-01T16:58:05Z
2020-01-01T15:00:37Z,42.805,6.029,13.3024,4.60052,2470.087,2020-1-01T17:01:08Z
2020-01-01T15:03:40Z,42.805,6.029,13.2989,4.60042,2470.063,2020-1-01T17:04:11Z
2020-01-01T15:06:43Z,42.805,6.029,13.2990,4.60050,2470.053,2020-1-01T17:07:14Z
2020-01-01T15:09:46Z,42.805,6.029,13.3011,4.60108,2470.077,2020-1-01T17:10:18Z
2020-01-01T15:12:50Z,42.805,6.029,13.2998,4.60085,2470.04,2020-1-01T17:13:21Z
2020-01-01T15:15:53Z,42.805,6.029,13.3010,4.60050,2470.1,2020-1-01T17:16:24Z